When you browse on this site, cookies collect data to enhance your experience and personalize the content and advertising you see.
Visit our Privacy Policy to learn more. By continuing to use the site, you agree to this use of cookies and data.
  • In Latvia
  • List of Countries
  • For 7 days
  • Water Temperature
  • Weather Map
  • Weather Widgets
  • user-avatar
    Login

    Hourly Weather Daugavpils

    Today, 17 September, Tuesday

    Time Temperature Precipitation Wind Pressure Humidity
    00:00 +7°C° 0 mm 4 mps 740 mmHg 80%
    01:00 +6°C° 0 mm 4 mps 740 mmHg 80%
    02:00 +6°C° 0 mm 4 mps 740 mmHg 79%
    03:00 +6°C° 0 mm 4 mps 740 mmHg 80%
    04:00 +6°C° 0 mm 4 mps 740 mmHg 80%
    05:00 +6°C° 0 mm 4 mps 740 mmHg 81%
    06:00 +6°C° 0 mm 4 mps 740 mmHg 81%
    07:00 +7°C° 0 mm 5 mps 740 mmHg 80%
    08:00 +8°C° 0 mm 5 mps 740 mmHg 79%
    09:00 +9°C° 0.1 mm 5 mps 740 mmHg 76%
    10:00 +10°C° 0.1 mm 5 mps 740 mmHg 73%
    11:00 +12°C° 0.1 mm 5 mps 740 mmHg 70%
    12:00 +12°C° 0.4 mm 5 mps 740 mmHg 70%
    13:00 +12°C° 0.4 mm 4 mps 739 mmHg 69%
    14:00 +13°C° 0.4 mm 4 mps 739 mmHg 69%
    15:00 +12°C° 0.2 mm 4 mps 739 mmHg 72%
    16:00 +12°C° 0.2 mm 3 mps 738 mmHg 75%
    17:00 +11°C° 0.2 mm 3 mps 738 mmHg 79%
    18:00 +10°C° 0.1 mm 2 mps 737 mmHg 84%
    19:00 +9°C° 0.1 mm 2 mps 737 mmHg 88%
    20:00 +9°C° 0.1 mm 1 mps 737 mmHg 93%
    21:00 +8°C° 0.5 mm 2 mps 737 mmHg 94%
    22:00 +8°C° 0.5 mm 2 mps 736 mmHg 95%
    23:00 +8°C° 0.5 mm 3 mps 736 mmHg 95%

    Tomorrow, 18 September, Wednesday

    Time Temperature Precipitation Wind Pressure Humidity
    00:00 +7°C° 1 mm 2 mps 736 mmHg 95%
    01:00 +7°C° 1 mm 2 mps 736 mmHg 95%
    02:00 +6°C° 1 mm 2 mps 736 mmHg 95%
    03:00 +6°C° 0.2 mm 2 mps 736 mmHg 95%
    04:00 +7°C° 0.2 mm 1 mps 736 mmHg 95%
    05:00 +7°C° 0.2 mm 1 mps 736 mmHg 95%
    06:00 +7°C° 0.1 mm 1 mps 737 mmHg 95%
    07:00 +6°C° 0.1 mm 2 mps 737 mmHg 95%
    08:00 +7°C° 0.1 mm 2 mps 738 mmHg 95%
    09:00 +8°C° 0.1 mm 2 mps 738 mmHg 92%
    10:00 +9°C° 0.1 mm 3 mps 739 mmHg 88%
    11:00 +9°C° 0.1 mm 3 mps 740 mmHg 85%
    12:00 +11°C° 0.1 mm 3 mps 740 mmHg 77%
    13:00 +12°C° 0.1 mm 3 mps 740 mmHg 69%
    14:00 +13°C° 0.1 mm 4 mps 741 mmHg 61%
    15:00 +12°C° 0.2 mm 3 mps 741 mmHg 66%
    16:00 +11°C° 0.2 mm 3 mps 742 mmHg 71%
    17:00 +11°C° 0.2 mm 3 mps 742 mmHg 76%
    18:00 +10°C° 0.2 mm 3 mps 743 mmHg 82%
    19:00 +9°C° 0.2 mm 3 mps 743 mmHg 87%
    20:00 +8°C° 0.2 mm 3 mps 744 mmHg 92%
    21:00 +8°C° 0 mm 2 mps 744 mmHg 94%
    22:00 +7°C° 0 mm 2 mps 745 mmHg 96%
    23:00 +6°C° 0 mm 2 mps 745 mmHg 97%

    Day after tomorrow, 19 September, Thursday

    Time Temperature Precipitation Wind Pressure Humidity
    00:00 +6°C° 0 mm 2 mps 746 mmHg 97%
    01:00 +5°C° 0 mm 2 mps 746 mmHg 98%
    02:00 +5°C° 0 mm 2 mps 747 mmHg 98%
    03:00 +5°C° 0 mm 2 mps 747 mmHg 97%
    04:00 +6°C° 0 mm 1 mps 747 mmHg 96%
    05:00 +5°C° 0 mm 1 mps 748 mmHg 95%
    06:00 +6°C° 0 mm 1 mps 748 mmHg 93%
    07:00 +6°C° 0 mm 1 mps 749 mmHg 90%
    08:00 +7°C° 0 mm 1 mps 749 mmHg 88%
    09:00 +8°C° 0 mm 1 mps 749 mmHg 79%
    10:00 +10°C° 0 mm 1 mps 750 mmHg 71%
    11:00 +11°C° 0 mm 1 mps 750 mmHg 62%
    12:00 +12°C° 0 mm 1 mps 750 mmHg 59%
    13:00 +12°C° 0 mm 1 mps 750 mmHg 56%
    14:00 +13°C° 0 mm 2 mps 750 mmHg 53%
    15:00 +13°C° 0 mm 1 mps 750 mmHg 57%
    16:00 +12°C° 0 mm 1 mps 750 mmHg 62%
    17:00 +12°C° 0 mm 1 mps 750 mmHg 66%
    18:00 +11°C° 0.2 mm 1 mps 750 mmHg 75%
    19:00 +9°C° 0.2 mm 1 mps 750 mmHg 84%
    20:00 +8°C° 0.2 mm 1 mps 750 mmHg 94%
    21:00 +7°C° 0.1 mm 2 mps 750 mmHg 95%
    22:00 +6°C° 0.1 mm 2 mps 750 mmHg 96%
    23:00 +6°C° 0.1 mm 2 mps 750 mmHg 96%

    20 September, Friday

    Time Temperature Precipitation Wind Pressure Humidity
    00:00 +5°C° 0.2 mm 3 mps 751 mmHg 96%
    01:00 +4°C° 0.2 mm 3 mps 751 mmHg 95%
    02:00 +4°C° 0.2 mm 3 mps 751 mmHg 95%
    03:00 +3°C° 0 mm 3 mps 751 mmHg 95%
    04:00 +3°C° 0 mm 3 mps 751 mmHg 96%
    05:00 +2°C° 0 mm 3 mps 751 mmHg 96%
    06:00 +2°C° 0 mm 3 mps 751 mmHg 95%
    07:00 +3°C° 0 mm 3 mps 751 mmHg 94%
    08:00 +4°C° 0 mm 3 mps 751 mmHg 92%
    09:00 +4°C° 0 mm 3 mps 752 mmHg 88%
    10:00 +5°C° 0 mm 3 mps 752 mmHg 84%
    11:00 +7°C° 0 mm 3 mps 753 mmHg 79%
    12:00 +8°C° 0.1 mm 3 mps 753 mmHg 74%
    13:00 +9°C° 0.1 mm 3 mps 753 mmHg 69%
    14:00 +10°C° 0.1 mm 3 mps 753 mmHg 64%
    15:00 +9°C° 0.1 mm 3 mps 753 mmHg 66%
    16:00 +9°C° 0.1 mm 3 mps 753 mmHg 69%
    17:00 +8°C° 0.1 mm 3 mps 753 mmHg 71%
    18:00 +7°C° 0 mm 2 mps 754 mmHg 78%
    19:00 +5°C° 0 mm 2 mps 754 mmHg 84%
    20:00 +4°C° 0 mm 2 mps 755 mmHg 91%
    21:00 +3°C° 0 mm 2 mps 755 mmHg 91%
    22:00 +3°C° 0 mm 2 mps 755 mmHg 92%
    23:00 +2°C° 0 mm 2 mps 756 mmHg 92%

    21 September, Saturday

    Time Temperature Precipitation Wind Pressure Humidity
    00:00 +3°C° 0 mm 1 mps 756 mmHg 92%
    01:00 +2°C° 0 mm 1 mps 756 mmHg 91%
    02:00 +2°C° 0 mm 1 mps 756 mmHg 91%
    03:00 +2°C° 0 mm 1 mps 757 mmHg 90%
    04:00 +2°C° 0 mm 1 mps 757 mmHg 90%
    05:00 +1°C° 0 mm 1 mps 757 mmHg 89%
    06:00 +3°C° 0 mm 1 mps 757 mmHg 85%
    07:00 +4°C° 0 mm 1 mps 757 mmHg 80%
    08:00 +5°C° 0 mm 1 mps 757 mmHg 75%
    09:00 +7°C° 0 mm 1 mps 757 mmHg 69%
    10:00 +8°C° 0 mm 2 mps 757 mmHg 62%
    11:00 +10°C° 0 mm 2 mps 758 mmHg 55%
    12:00 +10°C° 0 mm 2 mps 757 mmHg 57%
    13:00 +10°C° 0 mm 3 mps 757 mmHg 58%
    14:00 +11°C° 0 mm 3 mps 757 mmHg 59%
    15:00 +9°C° 0 mm 3 mps 757 mmHg 67%
    16:00 +8°C° 0 mm 3 mps 756 mmHg 76%
    17:00 +7°C° 0 mm 2 mps 756 mmHg 84%
    18:00 +7°C° 0.1 mm 2 mps 756 mmHg 87%
    19:00 +7°C° 0.1 mm 2 mps 756 mmHg 91%
    20:00 +6°C° 0.1 mm 2 mps 756 mmHg 94%
    21:00 +6°C° 0.3 mm 2 mps 756 mmHg 95%
    22:00 +7°C° 0.3 mm 2 mps 756 mmHg 96%
    23:00 +7°C° 0.3 mm 2 mps 756 mmHg 97%

    22 September, Sunday

    Time Temperature Precipitation Wind Pressure Humidity
    00:00 +7°C° 0 mm 2 mps 756 mmHg 97%
    01:00 +8°C° 0 mm 2 mps 756 mmHg 97%
    02:00 +8°C° 0 mm 2 mps 756 mmHg 98%
    03:00 +8°C° 0 mm 2 mps 756 mmHg 97%
    04:00 +7°C° 0 mm 2 mps 756 mmHg 97%
    05:00 +7°C° 0 mm 2 mps 756 mmHg 97%
    06:00 +8°C° 0 mm 3 mps 756 mmHg 95%
    07:00 +9°C° 0 mm 3 mps 756 mmHg 92%
    08:00 +9°C° 0 mm 3 mps 756 mmHg 90%
    09:00 +11°C° 0 mm 4 mps 756 mmHg 85%
    10:00 +13°C° 0 mm 4 mps 756 mmHg 80%
    11:00 +15°C° 0 mm 4 mps 756 mmHg 76%
    12:00 +17°C° 0 mm 4 mps 756 mmHg 71%
    13:00 +18°C° 0 mm 4 mps 756 mmHg 67%
    14:00 +19°C° 0 mm 4 mps 756 mmHg 63%
    15:00 +19°C° 0 mm 4 mps 756 mmHg 68%
    16:00 +18°C° 0 mm 3 mps 756 mmHg 73%
    17:00 +18°C° 0 mm 3 mps 755 mmHg 78%
    18:00 +17°C° 0 mm 3 mps 756 mmHg 84%
    19:00 +14°C° 0 mm 3 mps 756 mmHg 90%
    20:00 +13°C° 0 mm 3 mps 756 mmHg 95%
    21:00 +12°C° 0 mm 3 mps 756 mmHg 95%
    22:00 +12°C° 0 mm 3 mps 756 mmHg 96%
    23:00 +11°C° 0 mm 3 mps 756 mmHg 96%
    Show more